[[{"header":{"parameterUnit":"m.s-1","parameterCategory":1,"la1":30.2992,"la2":30.254,"lo1":-89.0895,"lo2":-89.0443,"dy":0.0025,"dx":0.0025,"nx":19,"ny":19,"refTime":"2026-04-26T03:00:00:Z","depth":0,"parameterNumber":2,"parameterNumberName":"U-component_of_WINDS"},"data":[0,0,0,1.7978,1.798,1.8077,1.8077,1.8212,1.8214,0,0,0,0,0,0,0,0,0,0,0,1.7954,1.7955,1.7978,1.7981,1.8077,1.8077,1.8212,1.8214,0,0,0,0,0,0,0,0,0,0,0,1.7953,1.7955,1.7956,1.7981,1.8077,1.8077,1.8212,1.8135,0,0,0,0,0,0,0,0,0,0,1.804,1.8021,1.7954,1.7956,1.7982,1.8077,1.8078,1.8132,1.814,1.8173,0,1.82,0,1.8209,1.8223,1.8224,0,0,0,1.7978,1.8013,1.8036,1.7956,1.7983,1.8077,1.8033,1.8136,1.8146,1.8184,1.8202,1.8207,1.8211,1.8224,1.8225,1.8416,1.8417,0,0,1.7973,1.7974,1.8029,1.8042,1.8025,1.803,1.8036,1.8142,1.8163,1.8202,1.821,1.8213,1.8225,1.8226,1.8415,1.8417,0,0,0,1.7959,1.797,1.799,1.8037,1.8053,1.8033,1.804,1.8158,1.8164,1.8211,1.8215,1.8226,1.8227,1.8414,1.8416,1.8467,0,0,0,1.7956,1.7962,1.7987,1.7989,1.8051,1.8106,1.8053,1.8157,1.8168,1.8214,1.8226,1.8229,1.8413,1.8415,1.8463,1.8491,0,0,0,1.7946,1.7961,1.7976,1.7989,1.803,1.8104,1.8117,1.8159,1.8171,1.8224,1.8229,1.8412,1.8415,1.846,1.8485,1.8543,0,0,0,1.7937,1.802,1.7977,1.8072,1.8029,1.8135,1.8116,1.8195,1.8246,1.8226,1.8413,1.8416,1.8459,1.8482,1.8539,1.8591,1.8613,0,0,1.8042,1.8033,1.8089,1.8053,1.8166,1.812,1.8242,1.8288,1.8293,1.8376,1.838,1.8465,1.8485,1.8542,1.8733,1.875,0,0,0,1.8123,1.8163,1.8193,1.8241,1.8279,1.8314,1.8341,1.8359,1.8429,1.8335,1.8501,1.8513,1.8546,1.8571,1.8586,1.8615,1.8427,1.8427,1.8427,1.8274,1.8275,1.8369,1.8384,1.8431,1.846,1.85,1.853,1.8517,1.8557,1.8581,1.8696,1.8725,1.8736,1.8767,1.8608,1.8609,1.8609,1.8609,1.8429,1.8487,1.8471,1.8556,1.8559,1.8631,1.8664,1.8653,1.8723,1.8677,1.8707,1.8657,1.8755,1.8782,1.8613,1.8612,1.8612,1.8611,1.8611,1.8528,1.8556,1.8577,1.8649,1.8706,1.8718,1.8786,1.8787,1.8787,1.8817,1.8844,1.8843,1.8843,1.883,1.883,1.883,1.8831,1.8831,1.8831,1.8622,1.8644,1.87,1.8749,1.8782,1.8825,1.8858,1.8891,1.8928,1.8923,1.8924,1.8909,1.8764,1.8728,1.8838,1.8837,1.8836,1.8835,1.8835,1.8779,1.8744,1.8831,1.8864,1.8924,1.8981,1.8982,1.905,1.9078,1.9112,1.9092,1.8985,1.8975,1.8963,1.8933,1.909,1.909,1.909,1.909,1.8862,1.8858,1.8948,1.9002,1.9054,1.9064,1.9166,1.9195,1.9218,1.9237,1.9214,1.9175,1.9163,1.916,1.9145,1.9117,1.9317,1.9317,1.9317,1.8959,1.896,1.9045,1.9067,1.9115,1.9157,1.9254,1.9318,1.9338,1.9326,1.9251,1.9242,1.9178,1.9157,1.9141,1.9117,1.9066,0,0]},{"header":{"parameterUnit":"m.s-1","parameterCategory":1,"la1":30.2992,"la2":30.254,"lo1":-89.0895,"lo2":-89.0443,"dy":0.0025,"dx":0.0025,"nx":19,"ny":19,"refTime":"2026-04-26T03:00:00:Z","depth":0,"parameterNumber":3,"parameterNumberName":"V-component_of_WINDS"},"data":[0,0,0,4.1451,4.1454,4.1631,4.1632,4.1849,4.1851,0,0,0,0,0,0,0,0,0,0,0,4.1399,4.1401,4.145,4.1455,4.1631,4.1632,4.1849,4.1851,0,0,0,0,0,0,0,0,0,0,0,4.1399,4.1401,4.1403,4.1456,4.1631,4.1632,4.1848,4.1717,0,0,0,0,0,0,0,0,0,0,4.1546,4.1502,4.14,4.1403,4.1457,4.1631,4.1632,4.171,4.1725,4.1768,0,4.1811,0,4.1835,4.1866,4.1867,0,0,0,4.1452,4.149,4.1537,4.1403,4.1458,4.163,4.1551,4.1719,4.1735,4.1787,4.1815,4.1823,4.1839,4.1867,4.1868,4.2137,4.2138,0,0,4.1443,4.143,4.1526,4.1548,4.1526,4.1545,4.1556,4.1729,4.1755,4.1815,4.1828,4.1842,4.1869,4.187,4.2135,4.2137,0,0,0,4.1416,4.1424,4.1467,4.1539,4.1571,4.155,4.1563,4.1748,4.1763,4.183,4.1845,4.187,4.1873,4.2134,4.2136,4.2194,0,0,0,4.141,4.1408,4.1463,4.1456,4.1568,4.1663,4.1578,4.1751,4.1771,4.1844,4.187,4.1875,4.2132,4.2135,4.2189,4.2222,0,0,0,4.1387,4.1406,4.1432,4.1456,4.1532,4.1661,4.1686,4.1756,4.178,4.1867,4.1875,4.2132,4.2135,4.2185,4.2215,4.229,0,0,0,4.1358,4.1478,4.1433,4.1572,4.153,4.1697,4.1685,4.1808,4.1889,4.1871,4.2133,4.2136,4.2184,4.2211,4.2285,4.2351,4.2378,0,0,4.1502,4.1495,4.1578,4.1543,4.1715,4.1671,4.1849,4.1932,4.1948,4.2071,4.2078,4.2191,4.2215,4.2289,4.253,4.2551,0,0,0,4.1619,4.1679,4.1727,4.1807,4.1877,4.1938,4.1996,4.2026,4.2132,4.2012,4.2238,4.2253,4.2296,4.2328,4.2346,4.2384,4.215,4.215,4.2149,4.1805,4.1824,4.1962,4.2003,4.2079,4.2139,4.2201,4.2251,4.2244,4.2297,4.2334,4.2479,4.2516,4.2529,4.2569,4.237,4.237,4.237,4.2371,4.2018,4.2105,4.2097,4.2229,4.2246,4.2354,4.2414,4.2406,4.2507,4.2452,4.2492,4.2431,4.2552,4.2587,4.2375,4.2374,4.2374,4.2373,4.2373,4.2141,4.2186,4.2225,4.2343,4.2429,4.2463,4.2562,4.2573,4.2582,4.2622,4.2661,4.266,4.266,4.264,4.264,4.2641,4.2641,4.2642,4.2642,4.2254,4.2296,4.2381,4.2466,4.2518,4.2588,4.2649,4.2699,4.2756,4.2756,4.2756,4.2743,4.2561,4.2515,4.265,4.2649,4.2648,4.2647,4.2646,4.2462,4.2418,4.2549,4.2602,4.2702,4.2787,4.2801,4.2902,4.2944,4.2991,4.2971,4.2835,4.2826,4.2812,4.2774,4.2967,4.2967,4.2967,4.2967,4.2566,4.2565,4.2702,4.2786,4.2869,4.2895,4.3037,4.3084,4.3125,4.3151,4.3125,4.3075,4.306,4.306,4.3041,4.3005,4.3254,4.3254,4.3254,4.2695,4.2703,4.2825,4.287,4.2949,4.3015,4.3149,4.3241,4.3277,4.3266,4.3172,4.316,4.308,4.3053,4.3039,4.3009,4.2944,0,0]}]]